User: anonymous   Login
Location: Unspecified
(0.0000°N, 0.0000°E)
Time: 06:15:03
(UTC+00:00)
Language:

Mayak - Orbit

View from above orbital plane
View from above orbital plane
View from above satellite
View from above satellite

Ground track
Ground track

The orbit data is extracted from the following two-line orbital elements,

1 42830U 17042F   18175.61655343 +.00000800 +00000-0 +85561-4 0  9993
2 42830 097.5978 077.8705 0014443 165.7248 194.4382 14.91314251051443
Epoch (UTC): 24 June 2018 14:47:50
Eccentricity: 0.0014443
inclination: 97.5978°
perigee height: 584 km
apogee height: 604 km
right ascension of ascending node: 77.8705°
argument of perigee: 165.7248°
revolutions per day: 14.91314251
mean anomaly at epoch: 194.4382°
orbit number at epoch: 5144

The dashed part of the orbit path shows where the satellite is in the earth's shadow,  

DLR